Miscellaneous Local Product
Issued by NWS Hastings, NE

Home | Current Version | Previous Version | Graphics & Text | Print | Product List | Glossary On
Versions: 1 2 3 4 5 6 7 8 9 10 11 12 13 14 15 16 17 18 19 20 21 22 23 24 25 26 27 28 29 30 31 32 33 34 35 36 37 38 39 40 41 42 43 44 45 46 47 48 49 50
000
AXUS43 KGID 300302
MISGRI

GID CWA HOURLY WEATHER ROUNDUP
NATIONAL WEATHER SERVICE HASTINGS NE
1000 PM CDT SAT AUG 29 2015

NOTE: "FAIR" INDICATES FEW OR NO CLOUDS BELOW 12,000 FEET WITH NO
SIGNIFICANT WEATHER AND/OR OBSTRUCTIONS TO VISIBILITY.

...SOUTH CENTRAL NEBRASKA...

CITY           SKY/WX    TMP DP  RH WIND       PRES   REMARKS
GRAND ISLAND   CLEAR     66  62  87 S5        30.06R
HASTINGS       CLEAR     69  61  75 SE6       30.06R
KEARNEY        CLEAR     66  61  82 SE5       30.06R
ORD            CLEAR     70  62  76 S5        30.03R
YORK           CLOUDY    64  64 100 SE8       30.05S
AURORA         CLEAR     65  65 100 SE6       30.05S
LEXINGTON      CLEAR     70  63  78 SE6       30.07R
HOLDREGE       CLEAR     63  60  88 SE6       30.07R
HEBRON         CLEAR     64  60  87 CALM      30.06R

...NEBRASKA PANHANDLE...

CITY           SKY/WX    TMP DP  RH WIND       PRES   REMARKS
CHADRON        PTCLDY    75  40  28 SE12      29.96R HAZE
ALLIANCE       PTCLDY    70  44  39 S9        30.05R
SCOTTSBLUFF    CLEAR     68  48  48 E8        30.04R
SIDNEY         CLEAR     69  42  37 S9        30.11R

...WESTERN AND NORTH CENTRAL NEBRASKA...

CITY           SKY/WX    TMP DP  RH WIND       PRES   REMARKS
VALENTINE      CLEAR     76  57  51 S12       29.99R
AINSWORTH      CLEAR     73  61  66 S9        30.02R
ONEILL         MOCLDY    70  67  88 S8        30.02R
BROKEN BOW     CLEAR     70  64  81 S5        30.06R
IMPERIAL       CLEAR     69  52  54 SE8       30.08R
NORTH PLATTE   CLEAR     65  62  90 E8        30.06R
MCCOOK         CLEAR     72  55  55 SE8       30.07R

...EASTERN NEBRASKA...

CITY           SKY/WX    TMP DP  RH WIND       PRES   REMARKS
NORFOLK        CLEAR     65  64  97 S7        30.04R
TEKAMAH        CLEAR     61  60  97 SE3       30.05R
COLUMBUS       CLEAR    N/A N/A N/A SE3       30.05S
ALBION         CLEAR     65  62  92 CALM      30.05R
OMAHA EPPLEY   MOCLDY    68  65  90 E6        30.06R
OFFUTT AFB     CLOUDY    67  64  89 S2        30.05R
MILLARD        CLOUDY    64  63  94 CALM      30.05R
LINCOLN        PTCLDY    64  61  90 SE8       30.06R
NEBRASKA CITY  CLOUDY    65  64  95 CALM      30.07S
BEATRICE       CLOUDY    63  61  91 CALM      30.07R
FALLS CITY     CLEAR     62  61  96 NW3       30.06R

...NORTHERN KANSAS...

CITY           SKY/WX    TMP DP  RH WIND       PRES   REMARKS
GOODLAND       CLEAR     67  49  52 S10       30.13R
HILL CITY      CLEAR     68  54  60 E6        30.07R
NORTON         CLEAR     68  52  56 SE6       30.07R
PHILLIPSBURG   CLEAR     70  59  68 SE3       30.06R
SMITH CENTER   CLEAR     64  61  88 SE7       30.07R
HAYS           CLEAR     70  55  60 E9        30.07R
RUSSELL        CLEAR     66  62  87 SE9       30.05R
CONCORDIA      CLEAR     62  61  96 SE6       30.07R
SALINA         CLEAR     68  61  78 SE5       30.06R
TOPEKA         PTCLDY    68  65  90 NE5       30.04R



USA.gov is the U.S. government's official web portal to all federal, state and local government web resources and services.